DELTA 1 DEB, 7027

Orbit data source: Space-Track

DELTA 1 DEB, 7027 is space debris in SSO originally from a launch on Tue, 06 Nov 1973 UTC launched from the Air Force Western Test Range (AFWTR). Debris objects in space refer to the collection of defunct objects orbiting the Earth. Examples of debris include non-operational satellites, rocket bodies, and fragments generated from explosions, collisions, or faulty payload assembly.

Loading next visibility...
Identifier
7027, 1973-086T
Orbit
SSO
Country
Flag of USUS
Related business
Manufacturer
Unknown
Mission
Spacecraft
Bus & Motor
Unknown
Mass
Unknown
Launch date (UTC)
1973-11-06 (53 years ago)
Launch vehicle
Unknown
Launch site
Air Force Western Test Range (AFWTR)
Object type
Payload
Rocket body
Debris
Shape & HBR
Unknown shape, 0.2 m
Radar Cross Section
Medium (>0.1 m² and <1 m²)

Expand to show TLE details & history
Last TLE update: 1 day ago

TLE from 1 day ago
0 DELTA 1 DEB
1 07027U 73086T   26206.26934325  .00000150  00000-0  15345-2 0  9996
2 07027 101.9030  96.8341 0061459 335.2368 140.1218 12.35233499368744
Epoch: 2026-07-25T06:27Z
TLE epoch observation values (Epoch: 2026-07-25T06:27:51.256Z)
Latitude
61.83986°
Longitude
-100.04279°
Altitude
1,574.683 km
Speed
7.07 km/s
True Right ascension
19h 59m 37s
True Declination
61° 42' 41"
Sunlit
Object was in daylight at epoch
Visualization orbit readout
Latitude
Unknown
Longitude
Unknown
Altitude
Unknown
Speed
Unknown
Apparent Right ascension
Unknown
Apparent Declination
Unknown
Sunlit
N/A
Visualization observer readout
Local Sidereal Time
21:19:28
Azimuth
Unknown
Elevation
Unknown
Doppler factor
Unknown
Orbital elements
Apogee altitude
1,573.017 km
Perigee altitude
1,475.88 km
Semi-major axis
7,902.586 km
Eccentricity
0.00615
Inclination
101.903°
RAAN
96.8341°
Arg. of periapsis
335.2368°
True anomaly
140.5707°
Mean anomaly
140.1218°
Eccentric anomaly
140.34651°
Mean motion
3.08951 °/min
Orbital period
116.52 mins
BSTAR
0.0015345
Loading maneuver chart data...
Computing Atmospheric mass density...
Loading historical data...
Loading historical data...
Loading historical data...
Loading historical data...
Loading historical data...
Loading historical data...
Loading historical data...

Documentation

Showing up to 5 results
|